Rotterdam, Netherlands

9:59 AM CEST on June 29, 2017 (GMT +0200)
Rotterdam

Weather History for EHRD - May, 2013

Change the Weather History Date:

Thursday, May 9, 2013

  Actual Average Record
Temperature  
Mean Temperature 54 °F -  
Max Temperature 59 °F 63 °F 78 °F (2008)
Min Temperature 50 °F 48 °F 34 °F (2017)
Degree Days  
Heating Degree Days 10    
Growing Degree Days 4 (Base 50)    
Moisture  
Dew Point 46 °F    
Average Humidity 73    
Maximum Humidity 94    
Minimum Humidity 44    
Precipitation  
Precipitation 0.00 in - - ()
Sea Level Pressure  
Sea Level Pressure 29.87 in    
Wind  
Wind Speed 11 mph ()    
Max Wind Speed 17 mph    
Max Gust Speed -    
Visibility 6.6 miles    
Events Rain    
Averages and records for this station are not official NWS values.
T = Trace of Precipitation, MM = Missing Value Source: Averaged Metar Reports

Daily Weather History Graph

Daily Weather History Graph

Search for Another Location

Airport or City:

Trip Planner

Search our weather history database for the weather conditions in past years. The results will help you decide how hot, cold, wet, or windy it might be!

Date:

Astronomy

May. 09, 2013 Rise Set
Actual Time 5:58 AM CEST 9:20 PM CEST
Civil Twilight 5:17 AM CEST 10:01 PM CEST
Nautical Twilight 4:23 AM CEST 10:55 PM CEST
Astronomical Twilight 3:08 AM CEST 12:12 AM CEST
Moon 5:38 AM CEST (5/9) 8:58 PM CEST (5/9)
Length of Visible Light 16h 43m
Length of Day
15h 22m
Waning Crescent, 0% of the Moon is Illuminated
May 9
Waning Crescent
May 10
New
May 18
First Quarter
May 25
Full
May 31
Last Quarter

Hourly Weather History & Observations

Time (CEST) Temp. Dew Point Humidity Pressure Visibility Wind Dir Wind Speed Gust Speed Precip Events Conditions
12:25 AM 53.6 °F 51.8 °F 94% 29.83 in 6.2 mi SW 9.2 mph - N/A   Unknown
12:55 AM 53.6 °F 51.8 °F 94% 29.83 in 6.2 mi SW 9.2 mph - N/A   Unknown
1:25 AM 55.4 °F 51.8 °F 88% 29.83 in 6.2 mi SW 11.5 mph - N/A   Unknown
1:55 AM 55.4 °F 51.8 °F 88% 29.83 in 6.2 mi SW 11.5 mph - N/A   Unknown
2:00 AM 54 °F 51 °F 86% 29.84 in 12 mi SW 8.9 mph - -   Partly Cloudy
2:25 AM 55.4 °F 51.8 °F 88% 29.83 in 6.2 mi SW 10.4 mph - N/A   Scattered Clouds
2:55 AM 55.4 °F 51.8 °F 88% 29.83 in 6.2 mi SW 13.8 mph - N/A   Overcast
3:25 AM 55.4 °F 51.8 °F 88% 29.83 in 6.2 mi SW 11.5 mph - N/A   Overcast
3:55 AM 55.4 °F 51.8 °F 88% 29.83 in 6.2 mi SW 15.0 mph - N/A   Overcast
4:25 AM 55.4 °F 51.8 °F 88% 29.83 in 6.2 mi SW 16.1 mph - N/A   Overcast
4:55 AM 51.8 °F 50.0 °F 94% 29.83 in 3.1 mi WSW 15.0 mph - N/A Rain Rain Showers
5:00 AM 52 °F 50 °F 89% 29.86 in 6 mi WSW 13.4 mph - - Rain Light Rain Showers
5:25 AM 51.8 °F 50.0 °F 94% 29.83 in 6.2 mi WSW 13.8 mph - N/A   Overcast
5:55 AM 51.8 °F 50.0 °F 94% 29.86 in 6.2 mi WSW 12.7 mph - N/A   Mostly Cloudy
6:25 AM 50.0 °F 48.2 °F 94% 29.86 in 5.6 mi WSW 11.5 mph - N/A   Mostly Cloudy
6:55 AM 50.0 °F 48.2 °F 94% 29.89 in 5.6 mi WSW 10.4 mph - N/A   Overcast
7:25 AM 51.8 °F 48.2 °F 88% 29.89 in 6.2 mi WSW 11.5 mph - N/A   Overcast
7:55 AM 51.8 °F 48.2 °F 88% 29.89 in 5.6 mi WSW 10.4 mph - N/A   Mostly Cloudy
8:00 AM 51 °F 48 °F 86% 29.91 in 5 mi SW 11.2 mph - -   Mist
8:25 AM 51.8 °F 48.2 °F 88% 29.89 in 5.0 mi SW 12.7 mph - N/A   Mostly Cloudy
8:55 AM 50.0 °F 46.4 °F 87% 29.92 in 5.0 mi SW 11.5 mph - N/A   Overcast
9:25 AM 51.8 °F 46.4 °F 82% 29.92 in 5.6 mi SW 13.8 mph - N/A   Overcast
9:55 AM 53.6 °F 46.4 °F 77% 29.92 in 6.2 mi SW 13.8 mph - N/A   Scattered Clouds
10:25 AM 53.6 °F 46.4 °F 77% 29.92 in 6.2 mi SW 13.8 mph - N/A   Scattered Clouds
10:55 AM 53.6 °F 46.4 °F 77% 29.92 in 6.2 mi SW 13.8 mph - N/A   Partly Cloudy
11:00 AM 53 °F 45 °F 67% 29.93 in 7 mi SW 11.2 mph - -   Scattered Clouds
11:25 AM 55.4 °F 46.4 °F 72% 29.92 in 6.2 mi SW 13.8 mph - N/A   Unknown
11:55 AM 57.2 °F 44.6 °F 63% 29.92 in 6.2 mi SW 13.8 mph - N/A   Mostly Cloudy
12:25 PM 55.4 °F 44.6 °F 67% 29.92 in 6.2 mi SW 13.8 mph - N/A   Scattered Clouds
12:55 PM 55.4 °F 44.6 °F 67% 29.92 in 6.2 mi SW 16.1 mph - N/A   Scattered Clouds
1:25 PM 57.2 °F 44.6 °F 63% 29.92 in 6.2 mi WSW 15.0 mph - N/A   Unknown
1:55 PM 55.4 °F 41.0 °F 58% 29.92 in 6.2 mi SW 15.0 mph - N/A   Mostly Cloudy
2:00 PM 56 °F 43 °F 51% 29.92 in 11 mi SW 11.2 mph - -   Partly Cloudy
2:25 PM 57.2 °F 42.8 °F 59% 29.89 in 6.2 mi WSW 10.4 mph - N/A   Mostly Cloudy
2:55 PM 57.2 °F 39.2 °F 51% 29.89 in 6.2 mi SW 17.3 mph - N/A   Scattered Clouds
3:25 PM 57.2 °F 41.0 °F 55% 29.89 in 6.2 mi SW 13.8 mph - N/A   Unknown
3:55 PM 57.2 °F 44.6 °F 63% 29.89 in 6.2 mi West 11.5 mph - N/A   Unknown
4:25 PM 59.0 °F 44.6 °F 59% 29.89 in 6.2 mi WSW 11.5 mph - N/A   Unknown
4:55 PM 57.2 °F 44.6 °F 63% 29.89 in 6.2 mi West 8.1 mph - N/A   Unknown
5:00 PM 58 °F 44 °F 50% 29.89 in 12 mi West 11.2 mph - -   Partly Cloudy
5:25 PM 59.0 °F 42.8 °F 55% 29.86 in 6.2 mi SW 11.5 mph - N/A   Unknown
5:55 PM 57.2 °F 42.8 °F 59% 29.86 in 6.2 mi West 11.5 mph - N/A   Scattered Clouds
6:25 PM 57.2 °F 42.8 °F 59% 29.86 in 6.2 mi West 12.7 mph - N/A   Unknown
6:55 PM 57.2 °F 41.0 °F 55% 29.86 in 6.2 mi West 11.5 mph - N/A   Unknown
7:25 PM 55.4 °F 39.2 °F 54% 29.86 in 6.2 mi WSW 12.7 mph - N/A   Unknown
7:55 PM 55.4 °F 39.2 °F 54% 29.86 in 6.2 mi WSW 8.1 mph - N/A   Unknown
8:00 PM 56 °F 40 °F 44% 29.87 in 18 mi WSW 8.9 mph - -   Partly Cloudy
8:25 PM 55.4 °F 41.0 °F 58% 29.86 in 6.2 mi WSW 6.9 mph - N/A   Unknown
8:55 PM 51.8 °F 41.0 °F 67% 29.86 in 6.2 mi WSW 5.8 mph - N/A   Unknown
9:25 PM 51.8 °F 41.0 °F 67% 29.83 in 6.2 mi SSE 4.6 mph - N/A   Unknown
9:55 PM 51.8 °F 41.0 °F 67% 29.83 in 6.2 mi SSE 5.8 mph - N/A   Unknown
10:25 PM 51.8 °F 41.0 °F 67% 29.83 in 6.2 mi SSE 5.8 mph - N/A   Unknown
10:55 PM 53.6 °F 41.0 °F 62% 29.83 in 6.2 mi SSE 6.9 mph - N/A   Unknown
11:00 PM 53 °F 41 °F 53% 29.85 in 22 mi SSE 6.7 mph - -   Mostly Cloudy
11:25 PM 53.6 °F 41.0 °F 62% 29.83 in 6.2 mi South 10.4 mph - N/A   Unknown
11:55 PM 51.8 °F 42.8 °F 71% 29.83 in 6.2 mi West 5.8 mph - N/A   Unknown